HB9UQS-13 Weather Reports


time (UTC)temp
F
wind
direction
speed
knots
gust
knots
rain 1hr
in
rain 24hr
in
rain mn
in
humidity
%
barometer
mb
20260506213730 45 271 1.7 4.3 0.00 0.00 0.00 90 926.2
20260506210730 45 286 1.7 5.2 0.00 0.00 0.00 89 926.2
20260506203730 46 280 1.7 3.5 0.00 0.00 0.00 90 925.8
20260506200730 46 268 1.7 4.3 0.00 0.00 0.00 89 925.6
20260506193730 46 254 1.7 3.5 0.00 0.00 0.00 87 925.2
20260506190730 47 287 0.9 2.6 0.00 0.00 0.00 85 925.0
20260506183730 48 280 0.9 2.6 0.00 0.00 0.00 84 924.9
20260506180730 49 294 1.7 4.3 0.00 0.00 0.00 83 924.6
20260506173730 50 279 1.7 4.3 0.00 0.00 0.00 82 924.6
20260506170730 49 295 3.5 8.7 0.00 0.00 0.00 84 924.3
20260506163731 49 294 2.6 6.1 0.00 0.00 0.00 85 924.3
20260506160731 49 279 2.6 7.0 0.00 0.00 0.00 83 924.2
20260506153730 49 285 2.6 7.0 0.00 0.00 0.00 87 924.3
20260506150730 48 286 2.6 5.2 0.00 0.00 0.00 88 924.4
20260506143730 48 271 1.7 4.3 0.00 0.00 0.00 92 924.2
20260506140730 48 277 3.5 7.8 0.00 0.00 0.00 89 924.1
20260506133730 48 294 3.5 8.7 0.00 0.00 0.00 91 924.3
20260506130731 48 277 2.6 7.0 0.00 0.00 0.00 90 923.9
20260506123730 48 288 1.7 5.2 0.00 0.00 0.00 92 923.9
20260506120729 47 295 4.3 12.2 0.00 0.00 0.00 93 923.5
20260506113729 47 273 4.3 9.6 0.00 0.00 0.00 94 923.4
20260506110730 46 292 5.2 10.4 0.00 0.00 0.00 95 923.3
20260506103730 47 288 3.5 10.4 0.00 0.00 0.00 95 923.4
20260506100730 47 288 3.5 7.8 0.00 0.00 0.00 96 923.1
20260506093730 48 277 2.6 5.2 0.00 0.00 0.00 95 922.7
20260506090730 49 291 0.9 2.6 0.00 0.00 0.00 94 922.4
20260506083730 49 269 0.9 1.7 0.00 0.00 0.00 93 922.0
20260506080730 50 174 0.9 1.7 0.00 0.00 0.00 92 921.6
20260506070729 48 321 0.9 2.6 0.00 0.00 0.00 96 921.5
20260506060730 47 282 0.9 3.5 0.00 0.00 0.00 97 921.7
20260506050730 41 125 0.0 1.7 0.00 0.00 0.00 96 922.0
20260506043730 40 212 0.0 1.7 0.00 0.00 0.00 96 921.8
20260506040730 40 306 0.0 0.9 0.00 0.00 0.00 96 922.0
20260506033731 41 221 0.0 1.7 0.00 0.00 0.00 95 922.1
20260506030730 41 124 0.0 0.9 0.00 0.00 0.00 96 922.4
20260506023730 44 166 0.9 1.7 0.00 0.00 0.00 95 922.9
20260506020730 42 202 0.0 0.0 0.00 0.00 0.00 93 923.0
20260506013730 45 307 0.9 2.6 0.00 0.00 0.00 89 923.2
20260506010730 48 238 0.9 2.6 0.00 0.00 0.00 88 923.5
20260506003730 49 260 0.9 1.7 0.00 0.00 0.00 90 924.1
20260506000730 49 240 0.0 1.7 0.00 0.00 0.00 91 924.4
20260505233731 48 290 0.0 1.7 0.00 0.00 0.00 93 924.5
20260505230730 49 216 0.9 0.9 0.00 0.00 0.00 88 924.9
20260505223730 49 278 0.9 1.7 0.00 0.00 0.00 91 924.9
20260505220730 47 113 0.0 1.7 0.00 0.00 0.00 93 924.8